Location: Aufkirchen
(47.9603°N, 11.3653°E)
Time: 14:42:13
(UTC+01:00)

Transit 2A Rocket - Pass Details

Date: 07 December 2020
Orbit: 592 x 910 km, 66.7° (Epoch: 21 January)

Event Time Altitude Azimuth Distance (km) Brightness Sun altitude
Rises 07:28:01 0° 328° (NNW) 3,179 - -4.0°
Exits shadow 07:28:16 - 329° (NNW) 3,088 7.6 -4.0°
Reaches altitude 10° 07:30:47 10° 339° (NNW) 2,194 6.9 -3.6°
Maximum altitude 07:35:06 29° 40° (NE) 1,223 6.2 -3.0°
Drops below altitude 10° 07:39:06 10° 101° (ESE) 2,027 8.7 -2.4°
Sets 07:41:33 0° 113° (ESE) 2,894 10.5 -2.1°
